Location: Sobotiste
(48.7170°N, 17.4000°E)
Time: 19:14:57
(UTC+02:00)

CUTE-I - Pass Details

Date: 22 March 2026
Orbit: 804 x 818 km, 98.7° (Epoch: 18 April)

Event Time Altitude Azimuth Distance (km) Brightness Sun altitude
Rises 04:50:38 0° 30° (NNE) 3,330 ? -10.5°
Reaches altitude 10° 04:54:04 10° 53° (NE) 2,394 ? -9.9°
Maximum altitude 04:57:02 15° 87° (E) 2,060 ? -9.4°
Drops below altitude 10° 04:59:59 10° 122° (ESE) 2,388 ? -8.9°
Sets 05:03:23 0° 145° (SE) 3,315 ? -8.4°
